Wind_Speed
26 26 28 31 35 41 45 44 50 51 49 37 27 21 16 8 4 7 17 24 26 11 17 14 17 22 27 27 21 17 18 16 12 12 8 1 14 30 24 38 36 33 41 45
28 25 29 33 35 43 46 46 49 52 48 36 27 17 10 13 3 5 14 13 15 19 19 23 25 32 34 30 20 22 21 21 16 18 28 33 50 31 36 51 51 41 57 47
29 25 29 31 39 43 46 50 51 50 45 33 23 9 12 15 9 2 8 14 25 31 34 34 39 39 36 32 28 25 26 25 28 30 36 42 46 47 42 46 72 49 57 57
27 28 29 31 39 46 47 50 52 51 39 28 20 11 12 22 16 13 11 14 27 32 39 46 44 44 41 42 38 33 30 30 29 38 44 47 47 48 50 54 65 64 61 64
24 31 31 31 41 50 46 52 53 50 37 24 13 10 14 26 30 24 21 25 25 26 36 47 55 45 46 40 39 43 47 42 40 37 42 46 47 52 54 53 55 59 69 73
29 32 29 35 44 42 47 52 53 44 30 20 5 8 16 23 35 30 28 26 34 40 42 49 49 45 41 42 45 46 46 46 44 44 47 45 49 50 52 59 58 58 65 72
27 26 31 38 40 42 50 52 50 35 24 14 2 7 14 21 34 39 39 36 36 40 45 52 54 55 57 56 51 47 50 50 45 44 45 46 47 49 53 55 60 68 71 81
24 30 32 37 43 43 50 52 43 25 16 10 5 1 7 16 24 35 44 48 49 50 52 53 58 58 61 56 54 53 49 53 54 54 54 54 55 55 56 59 62 65 75 81
28 30 35 40 40 44 49 45 29 16 14 10 8 7 9 11 14 15 26 28 35 44 46 46 46 46 48 55 59 60 58 57 57 61 65 65 65 60 62 63 65 66 70 76
30 32 34 37 38 43 47 39 19 14 11 10 11 14 16 18 20 20 24 29 32 35 37 40 43 43 44 51 60 65 64 61 63 66 67 68 67 68 70 73 75 75 73 75
31 31 34 33 37 42 44 35 20 16 17 19 19 18 20 23 26 27 27 30 32 37 37 43 43 50 51 57 60 61 64 67 71 75 76 77 75 76 78 79 81 83 84 84
30 30 26 34 37 40 41 31 22 20 17 17 16 18 22 25 28 32 34 34 37 38 44 48 49 55 59 64 67 66 67 71 77 77 77 78 82 85 89 91 91 89 88 87
31 31 28 30 35 38 39 34 24 23 24 22 22 23 28 32 36 38 41 42 44 47 50 54 58 61 66 68 70 71 76 80 83 85 86 87 88 90 89 87 88 90 92 89
32 31 29 30 34 37 37 35 24 23 22 21 27 32 35 39 39 41 45 47 50 54 56 61 67 71 74 78 81 83 86 88 89 92 90 83 77 72 67 65 64 66 70 75
34 31 30 32 35 39 38 37 29 25 24 27 30 32 35 39 41 46 50 54 56 59 63 68 73 75 82 85 87 92 95 95 92 84 72 62 57 53 49 46 46 46 50 53
34 32 33 35 36 39 40 39 31 28 27 29 33 37 40 44 45 47 53 54 58 62 65 75 77 83 88 87 90 96 99 95 80 66 56 49 46 41 38 34 33 35 38 42
35 34 36 36 38 39 43 44 34 30 31 31 35 38 42 44 48 54 58 62 65 66 72 77 85 87 88 89 94 95 94 80 67 55 46 38 30 29 28 28 26 29 31 28
32 33 36 38 39 41 44 45 38 35 32 32 35 40 45 49 55 60 62 66 68 72 81 86 91 93 95 95 95 91 78 64 55 43 33 24 23 24 28 26 25 25 25 26
32 31 36 39 41 43 45 44 40 38 35 31 35 42 47 52 58 65 69 73 77 83 91 94 97 99 99 97 89 75 62 52 41 27 19 19 22 24 28 27 25 29 27 25
31 33 37 39 43 46 45 40 37 38 33 31 36 42 49 53 59 66 72 76 81 88 93 97 99 98 94 84 70 60 50 38 27 14 17 21 25 27 25 23 23 26 25 24
30 33 37 38 42 46 48 45 41 36 28 32 38 46 50 56 62 66 71 75 84 90 99 99 99 89 75 66 57 45 35 24 14 15 18 23 23 24 22 22 21 23 23 22
33 36 37 39 42 45 46 44 41 36 34 37 42 48 52 60 65 70 76 82 90 100 100 96 85 73 61 52 41 32 23 11 14 19 22 24 25 26 26 25 25 23 22 22
35 38 38 40 41 43 44 40 39 37 37 43 47 50 55 63 68 73 81 88 97 97 93 79 67 59 49 37 29 20 16 24 23 23 23 26 26 28 32 32 30 25 24 24
36 39 39 40 41 44 41 39 38 38 41 45 47 50 57 63 70 78 86 93 101 89 79 65 55 46 34 26 16 18 28 26 26 26 26 29 34 37 38 36 33 29 26 26
37 40 42 41 42 44 39 38 37 37 42 43 46 52 60 66 74 82 89 99 91 76 62 51 42 32 22 14 22 27 27 27 26 27 34 36 36 34 35 36 30 25 23 21
40 42 42 43 42 42 37 36 34 37 40 45 49 57 63 69 77 85 93 98 84 70 51 41 29 18 14 26 29 28 28 30 32 38 43 46 39 33 31 30 25 23 24 25
Wind_Direction
326 331 322 326 325 330 337 336 336 336 332 328 316 306 291 248 257 339 23 15 349 303 287 304 331 329 328 326 308 297 291 281 285 315 257 251 302 298 305 290 291 283 292 265
322 325 324 328 320 330 335 332 335 332 330 325 321 311 242 204 236 324 24 11 322 298 314 316 325 329 328 318 301 286 272 262 250 246 250 256 251 237 226 248 233 232 255 267
310 315 321 326 318 331 330 329 331 332 329 322 322 295 210 216 183 246 321 307 311 301 297 307 316 320 317 313 296 289 283 268 261 251 244 254 256 239 246 236 232 237 240 241
296 314 323 324 319 326 327 326 329 334 328 318 314 285 210 223 206 228 241 275 283 295 296 307 303 305 302 307 305 295 290 288 280 263 259 259 257 253 247 249 236 232 241 238
304 312 319 320 318 321 324 329 333 332 326 319 309 266 243 212 218 218 228 255 259 279 293 301 294 294 296 297 291 293 295 299 298 284 266 266 266 263 261 253 252 248 246 242
303 311 317 319 322 326 327 333 333 331 325 315 306 238 240 222 219 233 234 252 261 273 287 293 297 296 300 298 294 295 294 289 287 283 284 277 275 274 268 263 260 259 247 250
309 308 314 319 326 328 330 334 333 335 336 318 298 235 218 231 230 232 244 244 260 269 275 285 294 296 302 303 300 302 300 296 292 290 287 286 286 281 278 272 267 253 245 244
302 312 312 319 325 329 334 335 336 344 350 344 357 331 226 242 246 242 247 255 265 275 277 287 294 297 298 300 303 306 303 296 296 297 294 292 289 283 279 275 272 265 251 245
307 313 315 320 324 331 336 336 344 10 34 32 18 8 343 323 312 297 257 261 268 279 286 290 297 301 304 303 301 300 301 298 297 298 294 294 292 285 279 276 275 272 268 258
314 316 318 323 324 331 335 337 336 340 2 2 338 329 318 307 304 297 289 283 289 296 302 306 307 306 308 310 306 301 299 298 297 298 296 292 291 287 283 278 276 274 270 268
310 312 319 321 325 329 336 334 332 328 339 337 336 333 325 323 324 323 317 313 312 310 314 315 314 312 306 308 308 308 303 301 303 303 299 295 291 285 278 273 271 272 272 272
303 313 314 316 325 330 336 331 325 321 321 324 328 335 334 334 331 328 321 318 316 315 313 317 317 317 314 307 303 304 305 302 302 296 290 286 284 281 279 278 275 270 269 269
304 311 311 315 323 331 337 330 317 322 322 326 326 326 319 321 320 321 325 320 318 318 317 319 319 320 319 315 311 309 309 308 307 306 301 294 288 285 284 282 279 275 274 275
301 308 309 316 319 328 336 331 307 305 310 311 315 316 319 320 321 325 324 323 324 322 322 322 321 317 316 315 315 315 314 311 310 307 303 300 297 296 294 290 286 282 277 273
301 307 310 314 319 327 334 333 312 296 300 305 312 319 323 321 320 324 325 326 324 323 322 321 322 319 314 315 317 316 319 317 312 311 308 306 304 303 303 300 297 293 287 282
299 307 312 314 320 327 331 333 319 292 290 299 305 314 320 320 318 321 324 325 324 322 321 325 321 318 316 316 316 315 319 316 316 317 314 313 313 315 312 313 309 301 294 290
299 305 311 311 319 327 330 331 321 305 284 289 299 310 314 318 321 325 327 327 326 324 325 323 323 320 317 317 316 319 319 319 321 319 319 323 323 327 333 340 348 352 347 326
296 305 309 310 318 325 327 329 324 317 298 288 301 309 317 319 321 323 325 327 324 325 326 325 322 321 319 319 319 322 319 322 321 324 332 330 338 341 346 348 359 7 13 16
299 305 309 309 319 325 328 329 327 322 310 299 301 311 319 320 322 324 328 329 329 328 327 325 320 320 320 320 322 321 320 322 323 335 343 351 346 349 348 345 353 357 2 12
297 306 307 313 320 325 327 325 322 321 311 305 312 317 319 320 324 327 330 330 327 326 326 323 319 318 319 321 321 322 326 325 334 347 360 358 358 1 358 356 351 347 355 357
296 302 307 314 319 321 324 326 327 322 310 311 313 316 319 322 326 330 333 329 327 327 326 322 320 320 323 320 322 330 329 338 359 4 357 0 3 356 353 353 352 347 346 348
290 298 304 312 320 323 323 323 324 319 312 312 315 318 321 326 328 333 332 330 330 331 327 323 322 325 323 322 330 334 344 25 15 21 10 9 1 350 341 341 342 341 342 342
294 301 305 311 317 318 319 319 319 317 314 318 321 321 323 327 332 336 336 332 332 330 327 325 326 324 326 332 337 351 40 42 37 29 15 359 352 346 344 341 338 329 325 324
291 296 302 310 315 316 317 317 316 316 317 321 321 318 323 331 337 337 337 336 335 332 329 326 325 327 333 341 8 62 63 47 33 21 10 0 353 350 346 344 341 336 333 331
290 296 301 308 313 315 312 312 311 311 315 318 319 322 331 335 339 340 337 341 341 339 334 329 328 331 347 33 81 77 64 46 37 21 10 4 358 347 346 344 341 343 345 349
291 294 299 306 310 312 307 306 305 311 316 322 322 324 335 340 341 340 342 346 346 344 344 344 340 357 50 87 85 74 59 48 32 24 23 20 17 6 1 1 4 10 5 357
Height
10901 10897 10891 10888 10884 10880 10874 10869 10859 10851 10843 10836 10831 10827 10823 10821 10821 10816 10813 10811 10818 10821 10816 10811 10812 10809 10805 10803 10805 10798 10798 10799 10799 10798 10794 10792 10790 10787 10788 10790 10779 10780 10779 10766
10898 10895 10890 10885 10880 10875 10866 10864 10859 10848 10837 10830 10828 10824 10821 10820 10819 10815 10813 10814 10815 10812 10807 10803 10800 10800 10799 10795 10799 10794 10793 10793 10790 10788 10782 10774 10769 10765 10774 10776 10771 10758 10755 10755
10894 10891 10887 10880 10875 10870 10865 10858 10854 10847 10833 10823 10820 10820 10820 10816 10817 10814 10813 10811 10806 10806 10802 10796 10793 10792 10792 10789 10785 10788 10783 10783 10779 10772 10764 10755 10753 10749 10750 10753 10749 10740 10739 10742
10889 10887 10882 10877 10871 10866 10861 10855 10846 10840 10829 10820 10815 10813 10816 10814 10815 10811 10812 10812 10802 10803 10796 10789 10786 10785 10783 10779 10774 10775 10779 10775 10771 10763 10755 10746 10740 10737 10739 10738 10731 10726 10724 10723
10885 10882 10878 10874 10868 10861 10855 10847 10838 10829 10820 10815 10811 10808 10809 10808 10808 10807 10806 10801 10795 10791 10787 10782 10782 10779 10777 10774 10770 10767 10763 10761 10759 10754 10743 10736 10731 10723 10717 10716 10714 10710 10705 10705
10881 10878 10874 10870 10864 10857 10850 10841 10831 10824 10814 10809 10808 10806 10804 10805 10803 10801 10801 10796 10790 10786 10781 10777 10772 10770 10767 10764 10760 10756 10752 10748 10745 10741 10733 10726 10716 10709 10705 10698 10693 10689 10687 10686
10877 10874 10869 10864 10860 10853 10844 10837 10826 10819 10812 10806 10804 10801 10802 10801 10799 10797 10794 10792 10788 10783 10780 10772 10766 10760 10755 10752 10747 10745 10738 10732 10729 10727 10722 10716 10707 10698 10690 10683 10677 10673 10672 10668
10871 10869 10866 10860 10855 10849 10840 10828 10820 10814 10809 10804 10802 10800 10799 10799 10797 10796 10794 10790 10786 10781 10778 10771 10762 10754 10747 10741 10736 10730 10725 10718 10713 10710 10703 10699 10692 10685 10676 10667 10659 10653 10648 10648
10867 10863 10860 10856 10849 10844 10836 10826 10819 10813 10810 10807 10803 10801 10799 10797 10795 10793 10789 10786 10783 10777 10771 10763 10756 10750 10741 10730 10721 10715 10710 10704 10699 10692 10683 10676 10670 10663 10657 10650 10641 10632 10627 10623
10862 10859 10854 10851 10846 10840 10833 10824 10820 10814 10811 10809 10805 10801 10798 10795 10792 10790 10786 10782 10776 10769 10763 10756 10748 10740 10732 10724 10713 10700 10692 10687 10680 10672 10664 10657 10648 10639 10632 10624 10617 10610 10604 10598
10860 10858 10850 10848 10844 10837 10828 10820 10816 10812 10808 10804 10801 10798 10793 10789 10785 10781 10777 10772 10766 10760 10754 10746 10737 10728 10721 10711 10699 10688 10680 10670 10659 10646 10636 10626 10619 10613 10605 10598 10590 10582 10576 10571
10856 10856 10853 10843 10839 10833 10825 10817 10813 10810 10807 10802 10797 10793 10788 10784 10779 10775 10770 10765 10758 10750 10742 10735 10727 10717 10706 10695 10682 10672 10662 10653 10640 10625 10612 10601 10591 10580 10570 10562 10557 10552 10548 10543
10850 10849 10846 10842 10836 10829 10821 10813 10808 10805 10801 10796 10791 10788 10783 10778 10772 10766 10760 10754 10748 10741 10732 10722 10711 10698 10685 10673 10660 10649 10639 10627 10611 10595 10580 10567 10555 10542 10533 10527 10521 10517 10515 10513
10844 10843 10841 10837 10832 10825 10818 10812 10806 10800 10797 10794 10789 10784 10778 10771 10764 10758 10752 10744 10735 10726 10717 10704 10691 10678 10663 10647 10635 10623 10610 10597 10582 10564 10546 10532 10518 10508 10501 10494 10487 10482 10480 10477
10838 10837 10835 10831 10826 10819 10812 10805 10798 10794 10791 10788 10784 10779 10773 10765 10757 10750 10741 10733 10722 10711 10700 10688 10676 10661 10644 10628 10613 10599 10585 10569 10551 10533 10517 10506 10495 10488 10481 10474 10468 10462 10455 10450
10832 10830 10828 10823 10820 10813 10807 10802 10794 10787 10784 10781 10777 10772 10765 10758 10751 10744 10735 10727 10716 10704 10691 10676 10660 10644 10627 10613 10597 10579 10561 10541 10525 10510 10499 10490 10482 10475 10469 10463 10456 10447 10438 10432
10826 10824 10820 10817 10813 10807 10800 10792 10788 10782 10776 10773 10769 10764 10758 10750 10741 10732 10723 10712 10700 10688 10675 10661 10645 10628 10610 10593 10577 10560 10540 10522 10508 10496 10486 10479 10473 10467 10461 10455 10448 10441 10432 10424
10822 10818 10813 10809 10806 10802 10794 10786 10779 10772 10766 10764 10759 10753 10746 10738 10729 10719 10710 10701 10688 10673 10657 10638 10618 10600 10583 10567 10551 10537 10518 10507 10495 10486 10478 10473 10469 10464 10458 10453 10448 10440 10431 10422
10816 10813 10808 10802 10798 10794 10787 10778 10770 10764 10757 10754 10751 10745 10737 10727 10717 10705 10693 10679 10663 10647 10632 10615 10595 10577 10560 10544 10529 10515 10504 10495 10486 10478 10475 10472 10467 10462 10457 10452 10446 10438 10432 10423
10810 10808 10803 10796 10789 10782 10779 10776 10768 10760 10752 10748 10744 10737 10729 10720 10710 10697 10684 10668 10652 10636 10619 10599 10580 10561 10544 10527 10514 10502 10494 10486 10479 10476 10473 10469 10464 10460 10455 10450 10444 10436 10429 10423
10805 10802 10796 10791 10785 10778 10769 10763 10760 10754 10750 10744 10738 10731 10724 10714 10703 10692 10678 10662 10643 10624 10603 10580 10558 10539 10527 10511 10502 10495 10486 10480 10477 10475 10472 10468 10463 10459 10453 10448 10442 10434 10427 10422
10800 10797 10792 10786 10780 10772 10765 10757 10753 10748 10744 10739 10733 10725 10716 10705 10692 10679 10663 10647 10627 10604 10577 10555 10535 10520 10508 10499 10493 10487 10483 10479 10478 10476 10473 10469 10464 10457 10451 10444 10437 10431 10424 10419
10791 10788 10785 10780 10775 10767 10760 10754 10748 10742 10738 10732 10725 10716 10707 10697 10685 10670 10653 10633 10611 10585 10559 10537 10522 10509 10499 10493 10488 10484 10484 10483 10482 10478 10475 10471 10464 10455 10447 10440 10433 10427 10421 10415
10785 10782 10778 10774 10769 10763 10755 10749 10743 10738 10732 10726 10719 10712 10703 10692 10678 10660 10642 10620 10594 10565 10541 10522 10511 10502 10493 10490 10487 10488 10486 10486 10484 10481 10477 10470 10461 10450 10440 10432 10425 10418 10412 10407
10778 10774 10770 10767 10763 10757 10751 10745 10739 10734 10729 10722 10715 10707 10697 10684 10668 10650 10630 10607 10577 10553 10531 10515 10504 10495 10491 10489 10490 10489 10490 10489 10487 10485 10478 10469 10459 10448 10439 10430 10421 10414 10409 10403
10770 10766 10764 10760 10756 10751 10745 10740 10735 10730 10724 10716 10707 10697 10687 10675 10658 10640 10618 10590 10565 10542 10524 10510 10500 10495 10492 10493 10494 10495 10495 10494 10492 10487 10479 10468 10458 10447 10438 10429 10421 10414 10408 10402